User: anonymous   Login
Location: Unspecified
(33.6682°S, 0.0000°E)
Time: 01:36:54
(UTC+00:00)
Language:

SR - Orbit

View from above orbital plane
View from above orbital plane
View from above satellite
View from above satellite

Ground track
Ground track

The orbit data is extracted from the following two-line orbital elements,

1    46U 60007B   19167.81190930 -.00000100  00000-0  32594-5 0  9998
2    46  66.6908 317.1640 0205048  42.9081 318.7818 14.49230505 85970
Epoch (UTC): 16 June 2019 19:29:08
Eccentricity: 0.0205048
inclination: 66.6908°
perigee height: 582 km
apogee height: 874 km
right ascension of ascending node: 317.1640°
argument of perigee: 42.9081°
revolutions per day: 14.49230505
mean anomaly at epoch: 318.7818°
orbit number at epoch: 8597

The dashed part of the orbit path shows where the satellite is in the earth's shadow,  

DLR